Home   Weather   Sterling Heights   Past weeks

Flag for USA Past Weather in Sterling Heights, Michigan, USA — Yesterday and Last 2 Weeks

Now
74 °F

Sunny.


Feels Like: 77 °F
Forecast: 58 / 78 °F
Wind: 10 mph from Southwest

Location: Selfridge Air National Guard Base

Current Time: May 29, 2017 at 11:25:04 am

Latest Report: May 29, 2017 at 10:58 am


Visibility: 10 mi

Pressure: 29.79 "Hg

Humidity: 52%

Dew Point: 55 °F

Location of Sterling HeightsLocation

Past Weather in Sterling Heights — Graph

°F

Sterling Heights Temperature Yesterday

Maximum temperature yesterday: 74 °F (at 3:58 pm)
Minimum temperature yesterday: 55 °F (at 2:58 am)
Average temperature yesterday: 64 °F

High & Low Weather Summary for the Past Weeks

 TemperatureHumidityPressure
High87 °F (May 17, 3:58 pm)100% (May 16, 6:58 am)30.26 "Hg (May 16, 6:58 am)
Low39 °F (May 15, 3:58 am)29% (May 18, 6:58 pm)29.46 "Hg (May 25, 8:02 am)
Average61 °F81%29.83 "Hg
* Reported May 14 9:58 am — May 29 9:58 am, Sterling Heights. Weather by CustomWeather, © 2017

Note: Actual official high and low records may vary slightly from our data, if they occured in-between our weather recording intervals... More about our weather records

Advertising

Sterling Heights Weather History for the Previous 24 Hours

Scroll right to see more
 ConditionsComfort  
Time TempWeatherWind HumidityBarometerVisibility
9:58 am
Mon, May 29
71 °FSunny.7 mph62%29.79 "Hg10 mi
8:58 am66 °FSunny.9 mph79%29.80 "Hg10 mi
7:58 am61 °FSunny.9 mph92%29.78 "Hg10 mi
6:58 am58 °FPartly sunny.8 mph100%29.76 "Hg10 mi
5:58 am58 °FScattered clouds.9 mph100%29.75 "Hg10 mi
4:58 am58 °FClear.9 mph100%29.70 "Hg10 mi
3:58 am59 °FClear.6 mph100%29.70 "Hg10 mi
2:58 am60 °FClear.8 mph100%29.70 "Hg10 mi
1:58 am61 °FPassing clouds.6 mph100%29.68 "Hg10 mi
12:58 am62 °FPassing clouds.6 mph100%29.69 "Hg10 mi
12:16 am63 °FPartly cloudy.5 mph100%29.69 "Hg10 mi
12:06 am61 °FPassing clouds.5 mph100%29.70 "Hg10 mi
11:43 pm
Sun, May 28
63 °FThunderstorms. Fog.5 mph100%29.69 "Hg5 mi
11:16 pm63 °FLight rain. Partly cloudy.5 mph100%29.72 "Hg10 mi
10:58 pm64 °FLight rain. Mostly cloudy.No wind100%29.71 "Hg7 mi
10:14 pm63 °FLight rain. Overcast.3 mph100%29.68 "Hg10 mi
9:58 pm63 °FScattered showers. Overcast.No wind100%29.67 "Hg10 mi
9:25 pm63 °FOvercast.10 mph100%29.64 "Hg10 mi
7:58 pm63 °FScattered showers. Broken clouds.8 mph100%29.68 "Hg10 mi
7:29 pm63 °FScattered showers. Broken clouds.8 mph100%29.69 "Hg10 mi
6:58 pm64 °FThundershowers. More clouds than sun.22 mph99%29.60 "Hg6 mi
6:34 pm66 °FThundershowers. More clouds than sun.14 mph88%29.67 "Hg7 mi
5:58 pm70 °FLight rain. More clouds than sun.9 mph85%29.66 "Hg7 mi
5:35 pm72 °FLight rain. More clouds than sun.7 mph73%29.67 "Hg10 mi
4:58 pm73 °FBroken clouds.7 mph72%29.67 "Hg10 mi
3:58 pm74 °FBroken clouds.7 mph71%29.68 "Hg10 mi
2:58 pm74 °FBroken clouds.7 mph71%29.72 "Hg10 mi
1:58 pm72 °FBroken clouds.7 mph66%29.73 "Hg10 mi
12:58 pm70 °FBroken clouds.5 mph67%29.75 "Hg10 mi
11:58 am68 °FScattered clouds.6 mph68%29.77 "Hg10 mi
Weather by CustomWeather, © 2017

See weather overviewHow to use our weather pages